EW2692 Weather Reports


Display with metric or nautical units.
time (UTC)temp
F
wind
direction
speed
MPH
gust
MPH
rain 1hr
in
rain 24hr
in
rain mn
in
humidity
%
barometer
mb
20260903224555 83 275 3.0 8.0 0.00 0.70 0.70 38 935.0
20260903223106 83 275 1.0 7.0 0.00 0.70 0.70 36 934.8
20260903221554 84 243 2.0 7.0 0.00 0.70 0.70 39 934.8
20260903214554 82 272 1.0 7.0 0.00 0.70 0.70 48 934.8
20260903213051 83 239 3.0 7.0 0.00 0.70 0.70 46 934.9
20260903211550 83 236 3.0 7.0 0.00 0.70 0.70 47 934.9
20260903210054 84 222 2.0 7.0 0.00 0.70 0.70 47 934.9
20260903204550 82 205 1.0 5.0 0.00 0.70 0.70 54 935.0
20260903203044 81 196 2.0 5.0 0.00 0.70 0.70 54 935.0
20260903201543 81 195 1.0 3.0 0.00 0.70 0.70 55 934.8
20260903200047 80 203 1.0 5.0 0.00 0.70 0.70 58 934.8
20260903194547 81 198 1.0 2.0 0.00 0.70 0.70 57 935.1
20260903193040 81 198 1.0 6.0 0.00 0.70 0.70 57 935.1
20260903191553 80 153 1.0 4.0 0.00 0.70 0.70 59 935.3
20260903190034 79 123 0.0 3.0 0.00 0.70 0.70 60 935.2
20260903184532 78 192 1.0 6.0 0.00 0.70 0.70 61 935.4
20260903183043 78 169 1.0 5.0 0.00 0.70 0.70 61 935.2
20260903181529 78 184 2.0 3.0 0.00 0.70 0.70 62 935.3
20260903180034 77 188 0.0 3.0 0.00 0.70 0.70 67 935.3
20260903174524 74 185 0.0 5.0 0.00 0.70 0.70 67 935.5
20260903173020 74 171 2.0 6.0 0.00 0.70 0.70 68 935.6
20260903171526 73 164 2.0 6.0 0.00 0.70 0.70 70 935.7
20260903170018 72 166 0.0 6.0 0.00 0.70 0.70 72 935.8
20260903164517 73 152 3.0 7.0 0.00 0.70 0.70 70 936.1
20260903163019 72 136 0.0 2.0 0.00 0.70 0.70 73 935.9
20260903161518 71 140 0.0 4.0 0.00 0.70 0.70 74 935.8
20260903160020 70 269 0.0 2.0 0.00 0.70 0.70 78 935.9
20260903154514 68 283 0.0 2.0 0.00 0.70 0.70 83 935.8
20260903153013 65 283 0.0 2.0 0.00 0.70 0.70 87 935.6
20260903151513 64 290 2.0 5.0 0.00 0.70 0.70 91 935.8
20260903150011 62 292 0.0 3.0 0.00 0.70 0.70 94 935.5
20260903144512 61 292 4.0 7.0 0.00 0.70 0.70 95 935.5
20260903143012 60 288 1.0 4.0 0.00 0.70 0.70 95 935.7
20260903141510 60 12 0.0 0.0 0.00 0.70 0.70 96 935.5
20260903140014 60 342 0.0 2.0 0.00 0.70 0.70 96 934.9
20260903134508 59 339 0.0 0.0 0.00 0.70 0.70 96 936.3
20260903133008 59 339 0.0 1.0 0.00 0.70 0.70 96 936.2
20260903131512 58 339 0.0 1.0 0.00 0.70 0.70 96 935.4
20260903130007 57 339 0.0 1.0 0.00 0.70 0.70 95 935.6
20260903124504 58 339 0.0 3.0 0.00 0.70 0.70 94 935.7
20260903123003 58 101 0.0 2.0 0.00 0.70 0.70 94 935.4
20260903121500 59 113 0.0 2.0 0.00 0.70 0.70 94 935.1
20260903114558 59 115 0.0 0.0 0.00 0.70 0.70 94 934.9
20260903113057 60 115 0.0 0.0 0.00 0.70 0.70 93 934.7
20260903111555 60 115 0.0 1.0 0.00 0.70 0.70 93 934.6
20260903110054 60 115 0.0 1.0 0.00 0.70 0.70 92 934.4
20260903104558 61 116 0.0 3.0 0.00 0.70 0.70 91 934.3
20260903103053 61 107 0.0 2.0 0.00 0.70 0.70 92 934.0
20260903101553 61 105 0.0 4.0 0.00 0.70 0.70 92 933.9
20260903100052 61 117 0.0 4.0 0.00 0.70 0.70 92 933.3
20260903094604 61 103 1.0 8.0 0.01 0.70 0.70 94 933.0
20260903093052 61 70 1.0 8.0 0.10 0.70 0.70 94 932.8
20260903091556 60 71 0.0 2.0 0.32 0.70 0.70 94 932.3
20260903090048 60 322 0.0 2.0 0.39 0.70 0.70 94 932.6
20260903084545 61 311 0.0 2.0 0.37 0.68 0.68 93 934.2
20260903083044 61 299 0.0 3.0 0.28 0.59 0.59 93 935.7
20260903081548 61 261 0.0 2.0 0.08 0.37 0.37 93 936.0
20260903080042 61 252 0.0 1.0 0.24 0.31 0.31 93 935.1
20260903074542 61 275 0.0 1.0 0.31 0.31 0.31 92 934.7
20260903073045 62 274 0.0 1.0 0.31 0.31 0.31 89 935.4
20260903071536 62 275 0.0 1.0 0.28 0.28 0.28 85 936.0
20260903070031 67 265 5.0 16.0 0.06 0.06 0.06 72 937.1
20260903064527 73 276 6.0 20.0 0.00 0.00 0.00 60 935.6
20260903063025 73 188 2.0 10.0 0.00 0.00 0.00 64 935.3
20260903061522 71 136 0.0 8.0 0.00 0.00 0.00 67 934.2
20260903060018 72 113 2.0 8.0 0.00 0.00 0.00 67 932.6
20260903054516 72 115 2.0 7.0 0.00 0.00 0.00 66 932.6
20260903053015 72 133 1.0 8.0 0.00 0.00 0.00 66 932.5
20260903051516 73 95 1.0 9.0 0.00 0.00 0.00 65 932.4
20260903050015 73 107 2.0 9.0 0.00 0.00 0.00 65 932.1
20260903044511 74 112 3.0 9.0 0.00 0.00 0.00 64 932.1
20260903043009 74 96 2.0 9.0 0.00 0.00 0.00 63 933.0
20260903041508 74 116 3.0 12.0 0.00 0.00 0.00 63 933.0
20260903040009 75 105 2.0 9.0 0.00 0.00 0.00 63 933.1
20260903034516 75 104 2.0 12.0 0.00 0.00 0.00 63 933.2
20260903033006 75 130 2.0 8.0 0.00 0.00 0.00 63 933.5
20260903031505 76 91 2.0 9.0 0.00 0.00 0.00 62 933.7
20260903030005 76 151 2.0 11.0 0.00 0.00 0.00 61 933.7
20260903024504 77 106 2.0 9.0 0.00 0.00 0.00 61 933.5
20260903023003 77 132 2.0 10.0 0.00 0.00 0.00 60 933.6
20260903021503 78 121 2.0 9.0 0.00 0.00 0.00 58 933.5
20260903020002 78 113 2.0 13.0 0.00 0.00 0.00 57 933.2
20260903014501 79 105 3.0 11.0 0.00 0.00 0.00 55 933.2
20260903013001 80 100 2.0 7.0 0.00 0.00 0.00 53 933.3
20260903011600 81 158 3.0 12.0 0.00 0.00 0.00 51 933.2
20260903010100 82 134 3.0 11.0 0.00 0.00 0.00 50 933.2
20260903004609 82 98 3.0 10.0 0.00 0.00 0.00 50 933.1
20260903003057 83 102 4.0 10.0 0.00 0.00 0.00 49 933.2
20260903001557 83 106 3.0 11.0 0.00 0.00 0.00 48 933.3
20260903000056 84 105 3.0 13.0 0.00 0.00 0.00 47 933.2
20260902234554 86 105 4.0 12.0 0.00 0.00 0.00 44 933.2
20260902233102 86 136 5.0 12.0 0.00 0.00 0.00 44 933.3
20260902231552 87 91 5.0 16.0 0.00 0.00 0.00 44 933.5
20260902230050 86 111 4.0 9.0 0.00 0.00 0.00 44 933.7